HULIANWANG DIGUI-119

Last updated on Fri Dec 19 2025 00:02:10 GMT+0000 (Coordinated Universal Time)

1 67059U 25295A 25351.46978994 -.00000182 00000+0 -90034-5 0 9995 2 67059 50.0070 352.2731 0013896 264.5159 95.4170 14.25569756 795
UTC large
Height (km)
Speed (km/s)
/
Latitude / Longitude
Inclination (degrees)
Orbital Period (minutes)
Azimuth
Elevation
Range (km)
Doppler Factor

Next 0 passes for location: London (51.5072 / 0.1276)

Sorry there are no passes over London.